Marianna, FL

3:09 AM CDT on April 27, 2018 (GMT -0500)
Marianna Municipal

Weather History for KMAI - April, 2013

Change the Weather History Date:

Tuesday, April 23, 2013

  Actual Average Record
Temperature  
Mean Temperature 69 °F 68 °F  
Max Temperature 79 °F 82 °F 93 °F (2011)
Min Temperature 59 °F 56 °F 46 °F (1998)
Degree Days  
Heating Degree Days 0    
Month to date heating degree days 47  
Since 1 July heating degree days 1356  
Cooling Degree Days 4    
Month to date cooling degree days 68  
Year to date cooling degree days 139  
Growing Degree Days 19 (Base 50)    
Moisture  
Dew Point 55 °F    
Average Humidity 68    
Maximum Humidity 90    
Minimum Humidity 45    
Precipitation  
Precipitation 0.00 in 0.08 in 0.92 in (1997)
Month to date precipitation 2.90 3.26  
Year to date precipitation 19.75 18.78  
Sea Level Pressure  
Sea Level Pressure 30.11 in    
Wind  
Wind Speed 4 mph (East)    
Max Wind Speed 13 mph    
Max Gust Speed 17 mph    
Visibility 10 miles    
Events      
T = Trace of Precipitation, MM = Missing Value Source: NWS Daily Summary

Daily Weather History Graph

Daily Weather History Graph

Search for Another Location

Airport or City:

Astronomy

Apr. 23, 2013 Rise Set
Actual Time 6:04 AM CDT 7:14 PM CDT
Civil Twilight 5:38 AM CDT 7:39 PM CDT
Nautical Twilight 5:09 AM CDT 8:09 PM CDT
Astronomical Twilight 4:38 AM CDT 8:40 PM CDT
Moon 5:15 PM CDT (4/23) 4:22 AM CDT (4/23)
Length of Visible Light 14h 00m
Length of Day
13h 10m
Waxing Gibbous, 94% of the Moon is Illuminated
Apr 23
Waxing Gibbous
Apr 25
Full
May 2
Last Quarter
May 9
New
May 17
First Quarter

Hourly Weather History & Observations

Time (CDT) Temp. Dew Point Humidity Pressure Visibility Wind Dir Wind Speed Gust Speed Precip Events Conditions
12:53 AM 62.1 °F 57.0 °F 84% 30.13 in 10.0 mi Calm Calm - N/A   Mostly Cloudy
1:53 AM 62.1 °F 57.9 °F 86% 30.11 in 10.0 mi Calm Calm - N/A   Overcast
2:53 AM 63.0 °F 57.0 °F 81% 30.09 in 10.0 mi ESE 3.5 mph - N/A   Overcast
3:53 AM 62.1 °F 57.0 °F 84% 30.10 in 10.0 mi East 3.5 mph - N/A   Overcast
5:53 AM 60.1 °F 55.0 °F 83% 30.13 in 10.0 mi East 5.8 mph - N/A   Overcast
6:53 AM 61.0 °F 55.0 °F 81% 30.15 in 10.0 mi East 5.8 mph - N/A   Overcast
7:53 AM 63.0 °F 53.1 °F 70% 30.16 in 10.0 mi East 8.1 mph - N/A   Overcast
8:53 AM 66.0 °F 53.1 °F 63% 30.16 in 10.0 mi East 8.1 mph - N/A   Overcast
9:53 AM 68.0 °F 50.0 °F 52% 30.16 in 10.0 mi ENE 9.2 mph - N/A   Clear
10:53 AM 71.1 °F 51.1 °F 49% 30.16 in 10.0 mi ENE 6.9 mph - N/A   Overcast
11:53 AM 73.9 °F 51.1 °F 45% 30.14 in 10.0 mi East 9.2 mph - N/A   Mostly Cloudy
12:53 PM 75.0 °F 54.0 °F 48% 30.12 in 10.0 mi SE 8.1 mph - N/A   Partly Cloudy
2:53 PM 77.0 °F 55.0 °F 47% 30.09 in 10.0 mi Variable 3.5 mph - N/A   Mostly Cloudy
3:53 PM 78.1 °F 55.0 °F 45% 30.07 in 10.0 mi Variable 3.5 mph - N/A   Mostly Cloudy
4:53 PM 75.9 °F 55.0 °F 48% 30.06 in 10.0 mi East 3.5 mph - N/A   Scattered Clouds
5:53 PM 77.0 °F 55.9 °F 48% 30.06 in 10.0 mi SE 5.8 mph - N/A   Mostly Cloudy
6:53 PM 75.0 °F 55.9 °F 51% 30.06 in 10.0 mi ESE 3.5 mph - N/A   Scattered Clouds
7:53 PM 73.0 °F 57.0 °F 57% 30.07 in 10.0 mi SSE 4.6 mph - N/A   Mostly Cloudy
8:53 PM 64.9 °F 57.9 °F 78% 30.09 in 10.0 mi Calm Calm - N/A   Clear
9:53 PM 64.9 °F 59.0 °F 81% 30.10 in 10.0 mi Calm Calm - N/A   Clear
10:53 PM 63.0 °F 59.0 °F 87% 30.10 in 10.0 mi Calm Calm - N/A   Clear
11:53 PM 61.0 °F 57.9 °F 90% 30.10 in 10.0 mi Calm Calm - N/A   Clear